Regional Weather Roundup
Issued by NWS

Home | Current Version | Previous Version | Graphics & Text | Print | Product List | Glossary On
Versions: 1 2 3 4 5 6 7 8 9 10 11 12 13 14 15 16 17 18 19 20 21 22 23 24 25 26 27 28 29 30 31 32 33 34 35 36 37 38 39 40 41 42 43 44 45 46 47 48 49 50
716
ASUS44 KJAN 310910
RWRMS

MISSISSIPPI HOURLY WEATHER ROUNDUP
NATIONAL WEATHER SERVICE JACKSON MS
400 AM CDT TUE MAR 31 2015

NOTE: "FAIR: INDICATES FEW OR NO CLOUDS BELOW 12,000 FEET WITH NO
SIGNIFICANT WEATHER AND/OR OBSTRUCTIONS TO VISIBILITY.

MSZ001>002-007>008-010>013-018>021-025>028-034>036-311000-
NORTHWEST MISSISSIPPI

CITY           SKY/WX    TMP DP  RH WIND       PRES   REMARKS
CLARKSDALE     FAIR      57  52  82 S5        30.02F
CLEVELAND      FAIR      59  55  87 S8        30.01S
GREENWOOD      CLEAR     55  50  83 CALM      30.03F
GREENVILLE     NOT AVBL
OLIVE BRANCH   CLEAR     52  48  87 S5        30.01S
OXFORD         FAIR      48  46  93 SE3       30.03F
TUNICA         SUNNY     54  50  87 S8        30.01F
$$

MSZ003>006-009-014>017-022>024-029>033-037>039-311000-
NORTHEAST MISSISSIPPI

CITY           SKY/WX    TMP DP  RH WIND       PRES   REMARKS
COLUMBUS AFB   CLEAR     49  49 100 SE1       30.03F
CORINTH        FAIR      46  45  93 CALM      30.02S
GOLDN TRIANGLE CLEAR     52  48  87 S3        30.03F
STARKVILLE     FAIR      50  48  93 CALM      30.04F
TUPELO         MOCLDY    50  47  89 CALM      30.03F
$$

MSZ040-058-311000-
CENTRAL MISSISSIPPI

CITY           SKY/WX    TMP DP  RH WIND       PRES   REMARKS
JACKSON INTL   CLEAR     60  56  86 SW6       30.06F
JACKSON HAWKNS CLEAR     62  57  83 SW7       30.06F
MERIDIAN KEY   CLEAR     55  54  96 S5        30.06F
MERIDIAN NAS   NOT AVBL
RAYMOND        FAIR      61  57  88 MISG      30.06S
VICKSBURG      CLEAR     64  58  80 SW5       30.06S
$$

MSZ059>079-311000-
SOUTH MISSISSIPPI

CITY           SKY/WX    TMP DP  RH WIND       PRES   REMARKS
BROOKHAVEN       N/A     61  59  94 CALM      30.09F
HATTIESBURG    CLEAR     65  60  84 SW7       30.09F
MCCOMB         FOG       55  55 100 CALM      30.08F VSB 1
NATCHEZ        CLEAR     61  57  88 S5        30.07F
PINE BELT      CLEAR     59  54  82 SW3       30.09S
$$

MSZ080>082-311000-
COASTAL MISSISSIPPI

CITY           SKY/WX    TMP DP  RH WIND       PRES   REMARKS
BILOXI         CLEAR     66  63  90 W6        30.09F
PASCAGOULA     CLEAR     65  64  97 SW3       30.10F
GULFPORT       CLEAR     65  62  90 CALM      30.09F
$$



USA.gov is the U.S. government's official web portal to all federal, state and local government web resources and services.